This is the latest recevied weather packets stored in our database for station/object EA3KZ-1. If no packets are shown the sender has not sent any weather packets the latest 10 day(s).
| Time | Temp. | Humidity | Pressure | Rain* | Wind** | Luminosity | Snow |
|---|---|---|---|---|---|---|---|
| 1777481453 | 21.11° C | 51% | 1008.1 hPa | 0 mm | - | - | - |
| 1777480851 | 20.56° C | 52% | 1008 hPa | 0 mm | - | - | - |
| 1777480248 | 21.67° C | 51% | 1008.1 hPa | 0 mm | - | - | - |
| 1777479646 | 21.67° C | 51% | 1008 hPa | 0 mm | - | - | - |
| 1777479043 | 21.67° C | 52% | 1008 hPa | 0 mm | - | - | - |
| 1777478440 | 21.11° C | 52% | 1007.9 hPa | 0 mm | - | - | - |
| 1777477838 | 21.67° C | 51% | 1008 hPa | 0 mm | - | - | - |
| 1777477235 | 21.67° C | 50% | 1007.9 hPa | 0 mm | - | - | - |
| 1777476632 | 21.67° C | 49% | 1008 hPa | 0 mm | - | - | - |
| 1777476029 | 22.22° C | 48% | 1008.1 hPa | 0 mm | - | - | - |
| 1777475427 | 22.22° C | 48% | 1008.3 hPa | 0 mm | - | - | - |
| 1777474824 | 21.11° C | 45% | 1008.2 hPa | 0 mm | - | - | - |
| 1777474221 | 21.67° C | 44% | 1008.2 hPa | 0 mm | - | - | - |
| 1777473619 | 21.67° C | 43% | 1008.3 hPa | 0 mm | - | - | - |
| 1777473016 | 21.67° C | 44% | 1008.2 hPa | 0 mm | - | - | - |
| 1777472474 | 21.11° C | 42% | 1008.4 hPa | 0 mm | - | - | - |
| 1777471871 | 21.67° C | 40% | 1008.4 hPa | 0 mm | - | - | - |
| 1777471268 | 21.11° C | 47% | 1008.4 hPa | 0 mm | - | - | - |
| 1777470666 | 20.56° C | 55% | 1008.4 hPa | 0 mm | - | - | - |
| 1777470063 | 21.11° C | 56% | 1008.7 hPa | 0 mm | - | - | - |
| 1777469461 | 20° C | 60% | 1008.8 hPa | 0 mm | - | - | - |
| 1777468858 | 21.11° C | 60% | 1008.9 hPa | 0 mm | - | - | - |
| 1777468256 | 20.56° C | 63% | 1008.8 hPa | 0 mm | - | - | - |
| 1777467653 | 20.56° C | 64% | 1008.8 hPa | 0 mm | - | - | - |
| 1777467050 | 20.56° C | 65% | 1008.5 hPa | 0 mm | - | - | - |
* Rain latest hour (hover to see other rain measurements)
** Current wind speed in m/s (hover to see current wind gust speed)